Regional Weather Roundup
Issued by NWS

Home | Current Version | Previous Version | Text Only | Print | Product List | Glossary Off
Versions: 1 2 3 4 5 6 7 8 9 10 11 12 13 14 15 16 17 18 19 20 21 22 23 24 25 26 27 28 29 30 31 32 33 34 35 36 37 38 39 40 41 42 43 44 45 46 47 48 49 50

299
ASUS45 KSLC 050810
RWRUT

UTAH REGIONAL WEATHER ROUNDUP
NATIONAL WEATHER SERVICE SALT LAKE CITY UT
100 AM MST MON DEC 05 2016

UTZ001>011-023>025-050900-

NORTHERN UTAH

CITY           SKY/WX    TMP DP  RH WIND       PRES   REMARKS
BRIGHAM CITY     N/A     41  22  47 NW3       29.77F
HILL AFB       CLOUDY    39  20  46 CALM      29.76F
LOGAN          MOCLDY   N/A N/A N/A N9        29.76F
OGDEN          CLOUDY    40  23  50 SE7       29.75F
SALT LAKE CITY CLOUDY    48  23  37 SE12      29.76S
TOOELE VALLEY  CLOUDY    50  27  40 W15G21    29.76F
WENDOVER       CLOUDY    46  19  34 W15       29.80R
HEBER CITY     CLOUDY    36  27  69 E5        29.75F WCI  32
WEST JORDAN    CLOUDY    43  28  54 E3        29.76F

$$

UTZ011>015-024>027-050900-

CENTRAL/NORTHEAST UTAH

CITY           SKY/WX    TMP DP  RH WIND       PRES   REMARKS
PROVO AIRPORT  CLOUDY    35  26  69 N5        29.79F WCI  31
MOAB/CANYONLAN PTCLDY    24  16  71 CALM      29.90F
DELTA          CLOUDY    39  18  41 S10       29.83F WCI  32
PRICE          CLOUDY    27  15  61 NE3       29.89F
ROOSEVELT      CLOUDY    23  18  80 CALM      29.83F
VERNAL         CLOUDY    20  14  77 CALM      29.82F

$$

UTZ013>016-019>022-027-050900-

SOUTHERN UTAH

CITY           SKY/WX    TMP DP  RH WIND       PRES   REMARKS
BRYCE CANYON   CLEAR     13   8  81 S6        29.96F WCI   4
CEDAR CITY     PTCLDY    41  10  28 S13       29.92F
MILFORD        MOCLDY    38  13  35 S17       29.88F WCI  28
ST GEORGE      CLOUDY    34  16  47 CALM      29.99S
HANKSVILLE     PTCLDY    25  16  68 SW3       29.93F
BLANDING       CLEAR     24  14  64 NE5       30.06F WCI  18

$$

REGIONAL REPORTS     COLORADO/ARIZONA

CITY           SKY/WX    TMP DP  RH WIND       PRES   REMARKS
CRAIG, CO      CLOUDY    27  18  69 SE6       29.78F WCI  20
GRAND JUNCTION CLOUDY    24  19  81 CALM      29.91F
RIFLE, CO      CLOUDY    28  22  78 NE5       29.89F WCI  23
MONTROSE, CO   CLOUDY    26  18  71 SE7       29.91F WCI  18
CORTEZ, CO     CLOUDY    20  16  84 NE3       30.00F
COLORADO CITY    N/A     27  21  80 CALM      30.00S
PAGE, AZ       PTCLDY    34  14  43 CALM      29.95F
GRAND CANYON   MOCLDY    21  18  88 CALM      30.03F
KINGMAN, AZ    MOCLDY    45  11  25 SE8       29.96F
FLAGSTAFF, AZ  MOCLDY    27  17  66 CALM      30.04F

$$

REGIONAL REPORTS    NEVADA/IDAHO/WYOMING

CITY           SKY/WX    TMP DP  RH WIND       PRES   REMARKS
LAS VEGAS, NV  MOCLDY    45  14  28 CALM      29.92F
ELY, NY        CLOUDY    30  18  60 S6        29.92F WCI  24
ELKO, NV       MOCLDY    34  24  67 NW13      29.91R WCI  25
POCATELLO, ID  MIX PCPN  31  28  89 SW35G43   29.79R WCI  15
BURLEY, ID     MIX PCPN  28  24  85 W20G31    29.87R WCI  15
FORT BRIDGER,  HVY SNOW  32  32 100 W15G23    29.75F VSB<1/4 WCI  22
EVANSTON, WY   FLURRIES  30  27  88 W16       29.74F WCI  19
ROCK SPRINGS,  CLOUDY    32  25  75 W26G33    29.70F WCI  18

$$




USA.gov is the U.S. government's official web portal to all federal, state and local government web resources and services.